DW4174 Weather Reports


Display with metric or nautical units.
time (UTC)temp
F
wind
direction
speed
MPH
gust
MPH
rain 1hr
in
rain 24hr
in
rain mn
in
humidity
%
barometer
mb
20260509112932 72 95 2.0 3.0 0.00 0.00 0.00 30 1008.0
20260509111132 73 96 3.0 4.0 0.00 0.00 0.00 30 1007.9
20260509110232 73 101 3.0 6.0 0.00 0.00 0.00 30 1007.9
20260509105332 73 110 2.0 6.0 0.00 0.00 0.00 32 1007.8
20260509104432 73 106 2.0 4.0 0.00 0.00 0.00 32 1007.8
20260509103532 73 105 1.0 6.0 0.00 0.00 0.00 33 1007.8
20260509102632 73 144 1.0 2.0 0.00 0.00 0.00 33 1007.7
20260509100832 73 0 0.0 0.0 0.00 0.00 0.00 33 1007.6
20260509095932 73 0 0.0 0.0 0.00 0.00 0.00 33 1007.6
20260509095032 73 0 0.0 0.0 0.00 0.00 0.00 33 1007.6
20260509094132 73 0 0.0 0.0 0.00 0.00 0.00 32 1007.7
20260509093232 74 0 0.0 0.0 0.00 0.00 0.00 31 1007.7
20260509092332 75 0 0.0 0.0 0.00 0.00 0.00 30 1007.7
20260509091432 75 0 0.0 0.0 0.00 0.00 0.00 30 1007.8
20260509090532 75 0 0.0 0.0 0.00 0.00 0.00 30 1007.8
20260509085632 76 0 0.0 0.0 0.00 0.00 0.00 29 1007.7
20260509084732 76 0 0.0 0.0 0.00 0.00 0.00 29 1007.7
20260509083832 76 0 0.0 0.0 0.00 0.00 0.00 28 1007.7
20260509082932 77 0 0.0 0.0 0.00 0.00 0.00 27 1007.7
20260509082032 76 0 0.0 0.0 0.00 0.00 0.00 27 1007.5
20260509080232 78 0 0.0 0.0 0.00 0.00 0.00 26 1007.5
20260509075332 78 0 0.0 0.0 0.00 0.00 0.00 25 1007.5
20260509074432 78 0 0.0 0.0 0.00 0.00 0.00 25 1007.5
20260509073532 78 0 0.0 0.0 0.00 0.00 0.00 24 1007.4
20260509071732 78 0 0.0 0.0 0.00 0.00 0.00 23 1007.5
20260509065932 79 0 0.0 0.0 0.00 0.00 0.00 22 1007.4
20260509065032 80 0 0.0 0.0 0.00 0.00 0.00 22 1007.3
20260509064132 80 0 0.0 0.0 0.00 0.00 0.00 22 1007.3
20260509063232 80 0 0.0 0.0 0.00 0.00 0.00 21 1007.3
20260509062332 82 252 1.0 3.0 0.00 0.00 0.00 21 1007.3
20260509061432 82 246 1.0 5.0 0.00 0.00 0.00 21 1007.2
20260509060532 82 240 0.0 3.0 0.00 0.00 0.00 22 1007.3
20260509054732 82 0 0.0 0.0 0.00 0.00 0.00 22 1007.1
20260509053832 82 0 0.0 0.0 0.00 0.00 0.00 23 1007.2
20260509052932 83 0 0.0 0.0 0.00 0.00 0.00 21 1007.1
20260509052032 84 0 0.0 0.0 0.00 0.00 0.00 20 1007.1
20260509051132 85 238 0.0 1.0 0.00 0.00 0.00 19 1007.1
20260509050232 86 238 0.0 5.0 0.00 0.00 0.00 18 1007.1
20260509045332 87 236 1.0 3.0 0.00 0.00 0.00 18 1007.1
20260509044432 87 232 0.0 3.0 0.00 0.00 0.00 18 1007.0
20260509042631 90 242 4.0 8.0 0.00 0.00 0.00 16 1006.9
20260509041732 90 244 4.0 8.0 0.00 0.00 0.00 16 1006.8
20260509040832 90 246 2.0 8.0 0.00 0.00 0.00 16 1006.7
20260509021715 95 257 5.0 9.0 0.00 0.00 0.00 12 1005.4
20260509020815 96 253 5.0 9.0 0.00 0.00 0.00 12 1005.3
20260509014115 97 262 8.0 12.0 0.00 0.00 0.00 11 1005.2
20260509012113 98 261 9.0 13.0 0.00 0.00 0.00 11 1005.2
20260509011213 99 280 9.0 13.0 0.00 0.00 0.00 11 1005.4
20260509010313 99 278 7.0 17.0 0.00 0.00 0.00 11 1005.5
20260509005413 100 253 8.0 12.0 0.00 0.00 0.00 11 1005.4
20260509004513 100 264 8.0 14.0 0.00 0.00 0.00 11 1005.5
20260509003613 100 272 7.0 15.0 0.00 0.00 0.00 11 1005.6
20260509002713 101 268 8.0 14.0 0.00 0.00 0.00 11 1005.7
20260509001813 100 267 9.0 14.0 0.00 0.00 0.00 11 1005.7
20260509000913 100 277 8.0 15.0 0.00 0.00 0.00 11 1005.8
20260509000013 100 288 9.0 14.0 0.00 0.00 0.00 11 1005.8
20260508235113 101 270 9.0 14.0 0.00 0.00 0.00 11 1005.9
20260508233313 101 276 10.0 17.0 0.00 0.00 0.00 10 1006.0
20260508232413 101 283 10.0 16.0 0.00 0.00 0.00 10 1006.2
20260508231513 101 286 9.0 17.0 0.00 0.00 0.00 11 1006.3
20260508230613 101 272 10.0 19.0 0.00 0.00 0.00 11 1006.2
20260508225713 101 256 9.0 19.0 0.00 0.00 0.00 11 1006.3
20260508224813 101 268 10.0 17.0 0.00 0.00 0.00 11 1006.4
20260508223913 101 280 9.0 17.0 0.00 0.00 0.00 11 1006.6
20260508223013 102 288 9.0 17.0 0.00 0.00 0.00 12 1006.7
20260508222113 101 279 10.0 17.0 0.00 0.00 0.00 11 1006.8
20260508221213 101 284 10.0 16.0 0.00 0.00 0.00 11 1007.0
20260508220313 101 297 9.0 18.0 0.00 0.00 0.00 11 1007.2
20260508215413 102 270 8.0 16.0 0.00 0.00 0.00 11 1007.4
20260508214513 101 271 8.0 15.0 0.00 0.00 0.00 12 1007.6
20260508213613 100 265 8.0 14.0 0.00 0.00 0.00 12 1007.8
20260508212713 101 261 7.0 17.0 0.00 0.00 0.00 12 1008.0
20260508211813 101 274 6.0 13.0 0.00 0.00 0.00 12 1008.1
20260508210912 100 285 8.0 15.0 0.00 0.00 0.00 12 1008.2
20260508210013 100 276 8.0 15.0 0.00 0.00 0.00 12 1008.4
20260508204213 98 307 4.0 10.0 0.00 0.00 0.00 13 1008.7
20260508203312 98 277 5.0 10.0 0.00 0.00 0.00 14 1008.8
20260508201513 96 184 4.0 12.0 0.00 0.00 0.00 14 1009.1
20260508200613 96 196 3.0 9.0 0.00 0.00 0.00 15 1009.3
20260508195713 97 199 2.0 7.0 0.00 0.00 0.00 15 1009.4
20260508194812 94 167 3.0 7.0 0.00 0.00 0.00 15 1009.4
20260508193914 95 212 3.0 7.0 0.00 0.00 0.00 14 1009.6
20260508193013 94 216 4.0 9.0 0.00 0.00 0.00 15 1009.9
20260508192112 97 227 4.0 13.0 0.00 0.00 0.00 14 1010.0
20260508191213 94 192 2.0 6.0 0.00 0.00 0.00 16 1010.1
20260508190313 93 195 4.0 7.0 0.00 0.00 0.00 16 1010.3
20260508185413 94 257 4.0 11.0 0.00 0.00 0.00 15 1010.4
20260508183612 91 193 2.0 7.0 0.00 0.00 0.00 17 1010.6
20260508182712 91 250 3.0 6.0 0.00 0.00 0.00 17 1010.7
20260508181812 91 243 3.0 7.0 0.00 0.00 0.00 16 1010.8
20260508180913 90 189 3.0 8.0 0.00 0.00 0.00 17 1011.0
20260508180012 90 213 2.0 6.0 0.00 0.00 0.00 19 1011.0
20260508174212 89 160 3.0 6.0 0.00 0.00 0.00 19 1011.2
20260508173312 88 204 2.0 6.0 0.00 0.00 0.00 20 1011.3
20260508172412 86 129 3.0 6.0 0.00 0.00 0.00 20 1011.3
20260508171512 86 173 3.0 6.0 0.00 0.00 0.00 21 1011.5
20260508170612 87 169 2.0 7.0 0.00 0.00 0.00 21 1011.5
20260508165712 86 144 3.0 7.0 0.00 0.00 0.00 22 1011.5
20260508164812 85 138 3.0 6.0 0.00 0.00 0.00 22 1011.6
20260508163912 84 109 3.0 7.0 0.00 0.00 0.00 22 1011.7
20260508162112 83 155 3.0 10.0 0.00 0.00 0.00 23 1011.6
20260508161212 83 129 3.0 5.0 0.00 0.00 0.00 24 1011.6
20260508160312 81 156 3.0 7.0 0.00 0.00 0.00 24 1011.6
20260508155412 81 163 3.0 8.0 0.00 0.00 0.00 24 1011.6
20260508153612 80 132 3.0 8.0 0.00 0.00 0.00 25 1011.6
20260508152712 80 137 3.0 8.0 0.00 0.00 0.00 26 1011.6
20260508151812 79 117 3.0 6.0 0.00 0.00 0.00 26 1011.7
20260508150912 79 125 3.0 6.0 0.00 0.00 0.00 26 1011.8
20260508150012 78 128 4.0 7.0 0.00 0.00 0.00 27 1011.8
20260508145112 78 123 4.0 7.0 0.00 0.00 0.00 27 1011.9
20260508144212 77 102 4.0 8.0 0.00 0.00 0.00 28 1011.8
20260508143312 77 96 3.0 7.0 0.00 0.00 0.00 28 1011.8
20260508142412 76 103 4.0 9.0 0.00 0.00 0.00 29 1011.7
20260508141513 75 106 4.0 8.0 0.00 0.00 0.00 29 1011.7
20260508140612 74 105 4.0 8.0 0.00 0.00 0.00 29 1011.6
20260508135712 73 106 3.0 7.0 0.00 0.00 0.00 30 1011.5
20260508134812 73 112 2.0 6.0 0.00 0.00 0.00 30 1011.4
20260508133912 72 106 3.0 7.0 0.00 0.00 0.00 31 1011.2
20260508133013 71 107 3.0 8.0 0.00 0.00 0.00 31 1011.0
20260508132113 71 106 3.0 7.0 0.00 0.00 0.00 32 1011.0
20260508131212 70 111 3.0 7.0 0.00 0.00 0.00 32 1010.8
20260508130312 70 112 4.0 8.0 0.00 0.00 0.00 32 1010.6
20260508125412 70 109 4.0 9.0 0.00 0.00 0.00 32 1010.5
20260508124512 70 121 3.0 10.0 0.00 0.00 0.00 32 1010.3
20260508122712 70 153 3.0 7.0 0.00 0.00 0.00 32 1010.2
20260508121812 70 116 4.0 8.0 0.00 0.00 0.00 32 1010.0
20260508120912 70 110 3.0 9.0 0.00 0.00 0.00 32 1010.1
20260508120012 70 113 3.0 8.0 0.00 0.00 0.00 32 1010.0
20260508115112 70 114 2.0 7.0 0.00 0.00 0.00 33 1010.1
20260508114212 70 104 2.0 7.0 0.00 0.00 0.00 33 1010.0
20260508113312 70 117 1.0 4.0 0.00 0.00 0.00 33 1009.9